Location: B?jaj?g
(11.7167°N, 92.6667°E)
Time: 17:30:54
(UTC+00:00)

ARIANE 5 DEB (SYLDA) - Pass Details

Date: 18 September 2020
Orbit: 590 x 35665 km, 4.2° (Epoch: 30 October)

Event Time Altitude Azimuth Distance (km) Brightness Sun altitude
Rises 12:50:37 0° 268° (W) 10,452 10.6 -16.1°
Reaches altitude 10° 13:02:10 10° 261° (W) 5,927 8.7 -18.9°
Maximum altitude 13:12:57 36° 198° (SSW) 1,554 4.6 -21.6°
Enters shadow 13:14:47 27° 154° (SSE) 1,526 4.2 -22.0°
